When you browse on this site, cookies collect data to enhance your experience and personalize the content and advertising you see.
Visit our Privacy Policy to learn more. By continuing to use the site, you agree to this use of cookies and data.
  • In Latvia
  • List of Countries
  • For 7 days
  • Water Temperature
  • Weather Map
  • Weather Widgets
  • user-avatar
    Login

    Hourly Weather Rzeczkow

    Today, 26 February, Wednesday

    Time Temperature Precipitation Wind Pressure Humidity
    00:00 +5°C° 0 mm 4 mps 729 mmHg 86%
    01:00 +4°C° 0 mm 3 mps 729 mmHg 87%
    02:00 +4°C° 0 mm 3 mps 729 mmHg 88%
    03:00 +3°C° 0 mm 3 mps 728 mmHg 90%
    04:00 +3°C° 0 mm 3 mps 727 mmHg 91%
    05:00 +3°C° 0.1 mm 3 mps 727 mmHg 91%
    06:00 +3°C° 0.1 mm 3 mps 727 mmHg 91%
    07:00 +3°C° 0.1 mm 3 mps 727 mmHg 91%
    08:00 +4°C° 0 mm 4 mps 727 mmHg 85%
    09:00 +5°C° 0 mm 5 mps 727 mmHg 79%
    10:00 +5°C° 0 mm 5 mps 727 mmHg 73%
    11:00 +5°C° 0 mm 5 mps 727 mmHg 70%
    12:00 +6°C° 0 mm 5 mps 727 mmHg 66%
    13:00 +6°C° 0 mm 5 mps 727 mmHg 62%
    14:00 +5°C° 0.1 mm 5 mps 727 mmHg 67%
    15:00 +4°C° 0.1 mm 6 mps 727 mmHg 71%
    16:00 +3°C° 0.1 mm 6 mps 727 mmHg 76%
    17:00 +2°C° 0.1 mm 5 mps 727 mmHg 76%
    18:00 +3°C° 0.1 mm 4 mps 727 mmHg 75%
    19:00 +2°C° 0.1 mm 3 mps 728 mmHg 74%
    20:00 +2°C° 0 mm 3 mps 728 mmHg 77%
    21:00 +1°C° 0 mm 3 mps 728 mmHg 79%
    22:00 +1°C° 0 mm 3 mps 728 mmHg 81%
    23:00 0°C° 0.1 mm 4 mps 729 mmHg 85%

    Tomorrow, 27 February, Thursday

    Time Temperature Precipitation Wind Pressure Humidity
    00:00 -1°C° 0.1 mm 4 mps 729 mmHg 90%
    01:00 -1°C° 0.1 mm 5 mps 730 mmHg 94%
    02:00 -1°C° 0.1 mm 5 mps 730 mmHg 93%
    03:00 -2°C° 0.1 mm 6 mps 730 mmHg 92%
    04:00 -1°C° 0.1 mm 6 mps 730 mmHg 90%
    05:00 -2°C° 0 mm 6 mps 731 mmHg 88%
    06:00 -3°C° 0 mm 6 mps 732 mmHg 85%
    07:00 -3°C° 0 mm 6 mps 732 mmHg 83%
    08:00 -3°C° 0 mm 7 mps 733 mmHg 79%
    09:00 -2°C° 0 mm 7 mps 733 mmHg 76%
    10:00 -2°C° 0 mm 7 mps 733 mmHg 73%
    11:00 -2°C° 0 mm 7 mps 734 mmHg 69%
    12:00 -1°C° 0 mm 7 mps 734 mmHg 65%
    13:00 0°C° 0 mm 7 mps 734 mmHg 61%
    14:00 +1°C° 0 mm 6 mps 734 mmHg 63%
    15:00 +1°C° 0 mm 6 mps 734 mmHg 66%
    16:00 +1°C° 0 mm 5 mps 733 mmHg 69%
    17:00 0°C° 0 mm 4 mps 733 mmHg 75%
    18:00 0°C° 0 mm 3 mps 733 mmHg 80%
    19:00 +1°C° 0 mm 2 mps 733 mmHg 86%
    20:00 +1°C° 0 mm 2 mps 732 mmHg 84%
    21:00 0°C° 0 mm 3 mps 731 mmHg 82%
    22:00 0°C° 0 mm 3 mps 731 mmHg 80%
    23:00 0°C° 0 mm 3 mps 730 mmHg 78%

    Day after tomorrow, 28 February, Friday

    Time Temperature Precipitation Wind Pressure Humidity
    00:00 -1°C° 0 mm 4 mps 730 mmHg 77%
    01:00 -1°C° 0 mm 4 mps 729 mmHg 75%
    02:00 -1°C° 0 mm 4 mps 728 mmHg 74%
    03:00 -1°C° 0 mm 4 mps 727 mmHg 73%
    04:00 -1°C° 0 mm 4 mps 727 mmHg 72%
    05:00 -1°C° 0.5 mm 4 mps 727 mmHg 78%
    06:00 0°C° 0.5 mm 3 mps 727 mmHg 85%
    07:00 -1°C° 0.5 mm 3 mps 727 mmHg 91%
    08:00 0°C° 0.2 mm 3 mps 729 mmHg 88%
    09:00 -1°C° 0.2 mm 4 mps 730 mmHg 84%
    10:00 0°C° 0.2 mm 5 mps 731 mmHg 81%
    11:00 -1°C° 0.1 mm 6 mps 732 mmHg 84%
    12:00 -1°C° 0.1 mm 6 mps 733 mmHg 88%
    13:00 -1°C° 0.1 mm 6 mps 735 mmHg 91%
    14:00 -2°C° 0.3 mm 6 mps 736 mmHg 92%
    15:00 -2°C° 0.3 mm 7 mps 737 mmHg 92%
    16:00 -2°C° 0.3 mm 7 mps 737 mmHg 93%
    17:00 -2°C° 0.1 mm 6 mps 738 mmHg 90%
    18:00 -1°C° 0.1 mm 5 mps 739 mmHg 87%
    19:00 -1°C° 0.1 mm 5 mps 739 mmHg 84%
    20:00 -1°C° 0 mm 5 mps 740 mmHg 86%
    21:00 -2°C° 0 mm 5 mps 740 mmHg 88%
    22:00 -2°C° 0 mm 5 mps 740 mmHg 90%
    23:00 -2°C° 0 mm 5 mps 740 mmHg 90%

    29 February, Saturday

    Time Temperature Precipitation Wind Pressure Humidity
    00:00 -2°C° 0 mm 5 mps 740 mmHg 90%
    01:00 -2°C° 0 mm 5 mps 741 mmHg 91%
    02:00 -2°C° 0 mm 5 mps 741 mmHg 90%
    03:00 -2°C° 0 mm 5 mps 740 mmHg 90%
    04:00 -2°C° 0 mm 5 mps 740 mmHg 90%
    05:00 -2°C° 0 mm 4 mps 740 mmHg 90%
    06:00 -3°C° 0 mm 4 mps 740 mmHg 91%
    07:00 -2°C° 0 mm 3 mps 740 mmHg 91%
    08:00 -1°C° 0 mm 3 mps 740 mmHg 86%
    09:00 0°C° 0 mm 3 mps 739 mmHg 81%
    10:00 0°C° 0 mm 4 mps 739 mmHg 75%
    11:00 +1°C° 0 mm 4 mps 739 mmHg 71%
    12:00 +3°C° 0 mm 4 mps 738 mmHg 66%
    13:00 +4°C° 0 mm 4 mps 737 mmHg 62%
    14:00 +3°C° 0 mm 5 mps 737 mmHg 64%
    15:00 +3°C° 0 mm 5 mps 736 mmHg 65%
    16:00 +3°C° 0 mm 5 mps 735 mmHg 67%
    17:00 +2°C° 0 mm 5 mps 735 mmHg 71%
    18:00 +2°C° 0 mm 5 mps 734 mmHg 75%
    19:00 +2°C° 0 mm 5 mps 734 mmHg 79%
    20:00 +1°C° 0 mm 5 mps 733 mmHg 79%
    21:00 +1°C° 0 mm 5 mps 733 mmHg 79%
    22:00 +1°C° 0 mm 5 mps 733 mmHg 79%
    23:00 +1°C° 0 mm 5 mps 732 mmHg 79%

    1 March, Sunday

    Time Temperature Precipitation Wind Pressure Humidity
    00:00 +1°C° 0 mm 5 mps 732 mmHg 80%
    01:00 +1°C° 0 mm 4 mps 732 mmHg 80%
    02:00 +2°C° 0.1 mm 5 mps 732 mmHg 82%
    03:00 +3°C° 0.1 mm 6 mps 732 mmHg 85%
    04:00 +3°C° 0.1 mm 6 mps 732 mmHg 87%
    05:00 +3°C° 0.4 mm 6 mps 732 mmHg 88%
    06:00 +3°C° 0.4 mm 6 mps 732 mmHg 89%
    07:00 +3°C° 0.4 mm 6 mps 732 mmHg 90%
    08:00 +5°C° 0.1 mm 5 mps 732 mmHg 86%
    09:00 +5°C° 0.1 mm 5 mps 733 mmHg 82%
    10:00 +5°C° 0.1 mm 4 mps 733 mmHg 79%
    11:00 +5°C° 0 mm 4 mps 733 mmHg 73%
    12:00 +6°C° 0 mm 5 mps 733 mmHg 67%
    13:00 +7°C° 0 mm 5 mps 733 mmHg 61%
    14:00 +7°C° 0 mm 5 mps 733 mmHg 61%
    15:00 +7°C° 0 mm 5 mps 732 mmHg 61%
    16:00 +7°C° 0 mm 5 mps 732 mmHg 62%
    17:00 +6°C° 0.1 mm 4 mps 732 mmHg 66%
    18:00 +5°C° 0.1 mm 4 mps 732 mmHg 70%
    19:00 +5°C° 0.1 mm 4 mps 733 mmHg 75%
    20:00 +4°C° 0 mm 3 mps 732 mmHg 77%
    21:00 +3°C° 0 mm 3 mps 732 mmHg 80%
    22:00 +3°C° 0 mm 3 mps 732 mmHg 83%
    23:00 +2°C° 0 mm 3 mps 732 mmHg 85%

    2 March, Monday

    Time Temperature Precipitation Wind Pressure Humidity
    00:00 +2°C° 0 mm 3 mps 732 mmHg 86%
    01:00 +2°C° 0 mm 3 mps 732 mmHg 88%
    02:00 +1°C° 0 mm 3 mps 732 mmHg 88%
    03:00 +1°C° 0 mm 3 mps 731 mmHg 89%
    04:00 +1°C° 0 mm 3 mps 731 mmHg 89%
    05:00 +1°C° 0 mm 4 mps 731 mmHg 85%
    06:00 +1°C° 0 mm 5 mps 731 mmHg 81%
    07:00 +2°C° 0 mm 6 mps 730 mmHg 77%
    08:00 +3°C° 0 mm 6 mps 730 mmHg 73%
    09:00 +4°C° 0 mm 6 mps 730 mmHg 69%
    10:00 +5°C° 0 mm 6 mps 730 mmHg 65%
    11:00 +7°C° 0 mm 6 mps 730 mmHg 63%
    12:00 +7°C° 0 mm 6 mps 730 mmHg 61%
    13:00 +8°C° 0 mm 6 mps 730 mmHg 59%
    14:00 +8°C° 0 mm 6 mps 730 mmHg 61%
    15:00 +8°C° 0 mm 5 mps 730 mmHg 62%
    16:00 +8°C° 0 mm 5 mps 729 mmHg 64%
    17:00 +7°C° 0.1 mm 5 mps 730 mmHg 67%
    18:00 +6°C° 0.1 mm 5 mps 730 mmHg 71%
    19:00 +6°C° 0.1 mm 4 mps 730 mmHg 75%
    20:00 +5°C° 0.2 mm 3 mps 730 mmHg 77%
    21:00 +5°C° 0.2 mm 3 mps 731 mmHg 79%
    22:00 +6°C° 0.2 mm 2 mps 731 mmHg 80%
    23:00 +6°C° 0 mm 2 mps 731 mmHg 81%
    Show more